"Pseudo-MPEC" for P22orOr

Created 2026 Jul 22 15:35:10 UT using Find_Orb

Click here for an explanation of pseudo-MPECs

 
 Astrometry: 
     P22orOr 0C2026 07 16.34718015 53 49.754+15 48 19.28   ~7KM5 22.10GVNEOCPF51
     P22orOr 0C2026 07 16.37207915 53 53.563+15 47 45.75   ~7KM5 22.94GVNEOCPF51
     P22orOr 0C2026 07 16.38447615 53 55.473+15 47 29.58   ~7KM5 22.51GVNEOCPF51
     P22orOr*0C2026 07 19.33507916 03 18.128+14 36 26.36   ~7JC5 22.40wXNEOCPF52
     P22orOr 0C2026 07 19.34604616 03 20.152+14 36 08.21   ~7JC5 21.98wXNEOCPF52
     P22orOr 0C2026 07 19.36811816 03 24.258+14 35 31.86   ~7JC5 22.20wXNEOCPF52
     P22orOr 1C2026 07 20.34891716 06 54.920+14 08 15.97   ~7KGo 22.14GVNEOCPT12
     P22orOr 1C2026 07 20.35617016 06 56.379+14 08 02.85   ~7KGo 22.25GVNEOCPT12
     P22orOr 1C2026 07 20.36428116 06 58.008+14 07 48.32   ~7KGox21.28GVNEOCPT12
     P22orOr 1C2026 07 20.36790816 06 58.686+14 07 42.19   ~7KGo 21.83GVNEOCPT12
     P22orOr 1C2026 07 20.37153616 06 59.424+14 07 35.60   ~7KGo 21.39GVNEOCPT12
     P22orOr 3C2026 07 20.38067616 07 01.242+14 07 19.43   ~7KCZ 21.82GVNEOCPT14
     P22orOr 3C2026 07 20.38164616 07 01.436+14 07 17.72   ~7KCZ 21.88GVNEOCPT14
     P22orOr 3C2026 07 20.38261616 07 01.634+14 07 15.97   ~7KCZ 21.82GVNEOCPT14
     P22orOr 1C2026 07 22.28190016 14 28.563+13 08 35.05   ~7MDK 21.70GVNEOCPT12
     P22orOr 1C2026 07 22.28379216 14 29.030+13 08 30.85   ~7MDKx21.70GVNEOCPT12
     P22orOr 1C2026 07 22.28568516 14 29.411+13 08 27.42   ~7MDK 21.42GVNEOCPT12

Station data:
(F51) Pan-STARRS 1, Haleakala  (N20.707234 W156.255910)  US/Hawaii.
   Observers J. Herman, T. Lowe, P. Minguez, A. Schultz, I. Smith. Measurers
   K. Chambers, T. de Boer, J. Fairlamb, H. Gao, M. Huber, C.-C. Lin, E.
   Magnier, Y. Ramanjooloo, R. Wainscoat, R. Weryk. 1.8-m Ritchey-Chrétien +
   CCD.
(F52) Pan-STARRS 2, Haleakala  (N20.707382 W156.255910)  US/Hawaii.
   Observers J. Herman, T. Lowe, P. Minguez, A. Schultz, I. Smith. Measurers
   K. Chambers, T. de Boer, J. Fairlamb, H. Gao, M. Huber, C.-C. Lin, E.
   Magnier, Y. Ramanjooloo, R. Wainscoat, R. Weryk. 1.8-m Ritchey-Chrétien +
   CCD.
(T12) Mauna Kea-UH/Tholen NEO Follow-Up (2.24-m)  (N19.822991 W155.469434)
   US/Hawaii.  Observer R. Weryk. 2.24-m f/10.1 University of Hawaii
   reflector.
(T14) Mauna Kea-UH/Tholen NEO Follow-Up (CFHT)  (N19.825252 W155.468876)
   US/Hawaii.  Observer R. Weryk. 3.6-m Canada-France-Hawaii Telescope.

Orbital elements:  P22orOr
   Perihelion 2026 Jul 29.411881 +/- 0.00685 TT =  9:53:06.5 (JD 2461250.911881)
Epoch 2026 Jul 22.0 TT = JDT 2461243.5   Earth MOID: 0.0724      AutoNEOCP
M 357.614877397 +/- 0.019           (J2000 ecliptic)
n   0.321797207 +/- 0.00288         Peri.  156.495321 +/- 0.0040
a   2.109022444 +/- 0.0126          Node   144.980751 +/- 0.011
e   0.49076106 +/- 0.0029           Incl.    7.605528 +/- 0.030
P   3.06282                H 24.17  G  0.15   U  8.8
q 1.073996341 +/- 0.000296    Q 3.144048548 +/- 0.0248
15 of 17 observations 2026 July 16-22; mean residual 0".11
Residuals in arcseconds: 
260716 F51  .07-  .04+    260720 T12  .06-  .11+    260720 T14  .08-  .09+    
260716 F51  .03+  .29-    260720 T12  .28+  .16-    260720 T14  .04-  .07+    
260716 F51  .02-  .20+    260720 T12( .55+  .29-)   260722 T12  .10-  .03+    
260719 F52  .04+  .04-    260720 T12  .10-  .04+    260722 T12( .62+  .41-)   
260719 F52  .02+  .18-    260720 T12  .10+  .09-    260722 T12  .09+  .08-    
260719 F52  .03+  .05-    260720 T14  .07-  .06+    

Ephemerides (geocentric):
Date (UTC) HH   RA             Dec           delta  r     elong  mag " sig PA
---- --------  ------------   ------------  ------ ------ -----  --- --------
2026 07 22 16  16 16 04.961   +12 55 49.97  .13162 1.0769 114.3 22.1 .096   5
2026 07 22 17  16 16 15.512   +12 54 25.05  .13149 1.0768 114.3 22.1 .098   3
2026 07 22 18  16 16 26.088   +12 52 59.87  .13136 1.0768 114.4 22.1 .100   0
2026 07 22 19  16 16 36.690   +12 51 34.45  .13123 1.0767 114.4 22.0 .103 178
2026 07 22 20  16 16 47.317   +12 50 08.78  .13110 1.0767 114.4 22.0 .105 176
2026 07 22 21  16 16 57.970   +12 48 42.87  .13098 1.0767 114.4 22.0 .108 174
2026 07 22 22  16 17 08.649   +12 47 16.70  .13085 1.0766 114.4 22.0 .111 173
2026 07 22 23  16 17 19.354   +12 45 50.29  .13072 1.0766 114.4 22.0 .115 171
2026 07 23 00  16 17 30.084   +12 44 23.62  .13059 1.0766 114.5 22.0 .118 169
2026 07 23 01  16 17 40.841   +12 42 56.70  .13046 1.0765 114.5 22.0 .121 167
2026 07 23 02  16 17 51.623   +12 41 29.53  .13034 1.0765 114.5 22.0 .125 166
2026 07 23 03  16 18 02.432   +12 40 02.11  .13021 1.0765 114.5 22.0 .129 164
2026 07 23 04  16 18 13.266   +12 38 34.44  .13008 1.0764 114.5 22.0 .133 163
2026 07 23 05  16 18 24.127   +12 37 06.51  .12995 1.0764 114.6 22.0 .137 162
2026 07 23 06  16 18 35.013   +12 35 38.33  .12982 1.0764 114.6 22.0 .141 160
2026 07 23 07  16 18 45.927   +12 34 09.89  .12970 1.0763 114.6 22.0 .145 159
2026 07 23 08  16 18 56.866   +12 32 41.20  .12957 1.0763 114.6 22.0 .150 158
2026 07 23 09  16 19 07.831   +12 31 12.25  .12944 1.0763 114.6 22.0 .154 157
2026 07 23 10  16 19 18.824   +12 29 43.04  .12932 1.0763 114.7 22.0 .159 156
2026 07 23 11  16 19 29.842   +12 28 13.58  .12919 1.0762 114.7 22.0 .164 155
2026 07 23 12  16 19 40.887   +12 26 43.86  .12906 1.0762 114.7 22.0 .169 154
2026 07 23 13  16 19 51.959   +12 25 13.88  .12893 1.0762 114.7 22.0 .174 153
2026 07 23 14  16 20 03.057   +12 23 43.64  .12881 1.0761 114.7 22.0 .179 152
2026 07 23 15  16 20 14.181   +12 22 13.15  .12868 1.0761 114.8 22.0 .184 152
2026 07 23 16  16 20 25.333   +12 20 42.39  .12855 1.0761 114.8 22.0 .190 151
2026 07 23 17  16 20 36.511   +12 19 11.37  .12843 1.0760 114.8 22.0 .195 150
2026 07 23 18  16 20 47.716   +12 17 40.08  .12830 1.0760 114.8 22.0 .201 149
2026 07 23 19  16 20 58.948   +12 16 08.54  .12817 1.0760 114.8 22.0 .206 149
2026 07 23 20  16 21 10.207   +12 14 36.73  .12805 1.0760 114.9 22.0 .212 148
2026 07 23 21  16 21 21.493   +12 13 04.66  .12792 1.0759 114.9 22.0 .218 147
2026 07 23 22  16 21 32.806   +12 11 32.33  .12780 1.0759 114.9 22.0 .224 147
2026 07 23 23  16 21 44.146   +12 09 59.73  .12767 1.0759 114.9 22.0 .230 146
2026 07 24 00  16 21 55.514   +12 08 26.86  .12754 1.0758 114.9 22.0 .236 146
2026 07 24 01  16 22 06.908   +12 06 53.73  .12742 1.0758 115.0 22.0 .242 145
2026 07 24 02  16 22 18.330   +12 05 20.33  .12729 1.0758 115.0 22.0 .248 145
2026 07 24 03  16 22 29.779   +12 03 46.66  .12717 1.0758 115.0 22.0 .255 144
2026 07 24 04  16 22 41.255   +12 02 12.72  .12704 1.0757 115.0 22.0 .261 144
2026 07 24 05  16 22 52.759   +12 00 38.52  .12691 1.0757 115.1 22.0 .268 143
2026 07 24 06  16 23 04.290   +11 59 04.04  .12679 1.0757 115.1 22.0 .275 143
2026 07 24 07  16 23 15.849   +11 57 29.30  .12666 1.0756 115.1 22.0 .281 143
2026 07 24 08  16 23 27.435   +11 55 54.28  .12654 1.0756 115.1 22.0 .288 142
2026 07 24 09  16 23 39.049   +11 54 19.00  .12641 1.0756 115.1 21.9 .295 142
2026 07 24 10  16 23 50.691   +11 52 43.44  .12629 1.0756 115.2 21.9 .302 141
2026 07 24 11  16 24 02.361   +11 51 07.60  .12616 1.0755 115.2 21.9 .309 141
2026 07 24 12  16 24 14.058   +11 49 31.50  .12604 1.0755 115.2 21.9 .316 141
2026 07 24 13  16 24 25.783   +11 47 55.12  .12591 1.0755 115.2 21.9 .324 140
2026 07 24 14  16 24 37.537   +11 46 18.46  .12579 1.0755 115.3 21.9 .331 140
2026 07 24 15  16 24 49.318   +11 44 41.53  .12566 1.0754 115.3 21.9 .339 140